FW6973 Weather Reports


time (UTC)temp
C
wind
direction
speed
KPH
gust
KPH
rain 1hr
cm
rain 24hr
cm
rain mn
cm
humidity
%
barometer
mb
20260504100103 9 0 0.0 3.2 0.00 0.00 0.00 92 1010.7
20260504081604 11 0 0.0 3.2 0.00 0.00 0.00 86 1010.8
20260504060126 14 0 0.0 0.0 0.00 0.00 0.00 72 1010.4
20260504050114 16 0 0.0 3.2 0.00 0.00 0.00 65 1010.5
20260504044559 16 270 0.0 6.4 0.00 0.00 0.00 65 1010.4
20260504043107 17 0 0.0 3.2 0.00 0.00 0.00 58 1010.5
20260504041557 18 0 0.0 6.4 0.00 0.00 0.00 62 1010.4
20260504040100 19 271 3.2 4.8 0.00 0.00 0.00 61 1010.3
20260504034601 20 318 0.0 4.8 0.00 0.00 0.00 55 1010.1
20260504033107 22 323 0.0 3.2 0.00 0.00 0.00 49 1010.1
20260504031605 23 323 1.6 3.2 0.00 0.00 0.00 42 1010.0
20260504030110 25 0 0.0 3.2 0.00 0.00 0.00 38 1010.0
20260504024608 26 0 0.0 1.6 0.00 0.00 0.00 36 1010.1
20260504023059 28 0 0.0 1.6 0.00 0.00 0.00 35 1010.2
20260504021601 28 324 0.0 4.8 0.00 0.00 0.00 30 1010.1
20260504020057 29 135 1.6 9.7 0.00 0.00 0.00 26 1010.2
20260504014604 30 331 1.6 8.0 0.00 0.00 0.00 28 1010.3
20260504013114 30 211 1.6 8.0 0.00 0.00 0.00 24 1010.3
20260504011600 29 0 0.0 4.8 0.00 0.00 0.00 26 1010.4
20260504010116 28 0 3.2 8.0 0.00 0.00 0.00 26 1010.4
20260504004557 29 194 1.6 11.3 0.00 0.00 0.00 29 1010.6
20260504003059 29 0 1.6 8.0 0.00 0.00 0.00 28 1010.7
20260504001603 30 121 3.2 14.5 0.00 0.00 0.00 29 1010.9
20260504000101 30 74 1.6 11.3 0.00 0.00 0.00 35 1011.0
20260503234557 30 0 1.6 11.3 0.00 0.00 0.00 33 1011.2
20260503233102 30 173 1.6 11.3 0.00 0.00 0.00 29 1011.3
20260503231557 30 176 3.2 9.7 0.00 0.00 0.00 31 1011.5
20260503230056 30 64 4.8 14.5 0.00 0.00 0.00 30 1011.7
20260503224601 30 284 4.8 12.9 0.00 0.00 0.00 27 1011.9
20260503223100 30 109 1.6 9.7 0.00 0.00 0.00 28 1011.9
20260503221600 29 144 3.2 9.7 0.00 0.00 0.00 32 1012.2
20260503220104 29 178 1.6 14.5 0.00 0.00 0.00 34 1012.3
20260503214601 29 78 3.2 6.4 0.00 0.00 0.00 39 1012.5
20260503213104 28 105 1.6 4.8 0.00 0.00 0.00 34 1012.7
20260503211559 28 67 3.2 11.3 0.00 0.00 0.00 28 1012.8
20260503204609 27 113 1.6 6.4 0.00 0.00 0.00 37 1013.0
20260503203108 27 200 1.6 6.4 0.00 0.00 0.00 34 1013.3
20260503201559 27 143 1.6 9.7 0.00 0.00 0.00 39 1013.5
20260503200056 26 61 1.6 8.0 0.00 0.00 0.00 43 1013.7
20260503194618 26 23 1.6 6.4 0.00 0.00 0.00 44 1013.9
20260503193058 26 88 1.6 6.4 0.00 0.00 0.00 40 1014.1
20260503191604 25 67 1.6 4.8 0.00 0.00 0.00 45 1014.3
20260503184600 23 96 1.6 9.7 0.00 0.00 0.00 49 1014.7
20260503183107 23 0 4.8 9.7 0.00 0.00 0.00 46 1014.7
20260503181558 23 155 1.6 4.8 0.00 0.00 0.00 50 1014.9
20260503180108 23 65 1.6 4.8 0.00 0.00 0.00 48 1015.0
20260503174557 22 0 1.6 8.0 0.00 0.00 0.00 50 1015.1
20260503173203 21 155 0.0 8.0 0.00 0.00 0.00 54 1015.2
20260503171559 21 188 0.0 3.2 0.00 0.00 0.00 61 1015.3